Theta_e
307 307 308 309 311 313 314 314 316 317 318 319 319 320 321 320 320 321 321 321 321 322 322 321 320 320 320 321 321 324 323 323 323 323 325 326 327 327 328 328 329 333 335 337
308 308 307 308 309 310 312 313 314 314 315 316 319 320 319 318 318 318 319 320 320 320 321 320 320 320 321 321 322 322 323 322 322 323 326 326 327 328 328 329 332 334 337 340
308 309 308 307 308 309 311 313 314 314 314 315 316 317 318 319 318 318 318 318 318 318 319 319 319 320 320 320 322 322 321 322 322 322 327 327 328 328 329 331 334 337 340 340
307 308 307 308 307 308 310 310 311 313 314 316 316 318 318 318 318 318 317 317 317 318 318 318 318 318 318 318 319 320 319 320 320 322 327 327 327 329 329 332 336 340 341 340
310 309 308 308 307 308 308 310 310 310 312 313 314 315 316 317 317 317 317 316 316 316 317 317 316 315 316 316 317 318 319 320 322 326 327 327 328 329 334 335 339 342 341 339
311 310 309 308 307 307 308 309 310 311 312 313 313 313 315 316 317 317 317 316 316 316 316 315 316 317 319 319 320 321 321 322 325 327 327 329 332 334 337 339 341 342 340 337
311 311 311 310 308 307 307 310 310 310 311 313 312 313 314 316 315 316 316 317 317 316 317 317 317 317 318 318 321 321 323 325 328 330 333 336 338 339 340 341 341 339 336 332
315 312 310 310 310 307 308 308 310 309 311 311 311 313 314 315 315 315 316 316 316 318 319 319 319 317 319 320 322 324 325 330 333 337 340 340 342 342 341 341 340 332 331 330
312 312 311 311 311 308 308 308 309 310 311 311 311 312 313 313 314 315 315 318 322 323 325 324 321 321 321 322 326 329 333 338 339 341 342 342 342 341 341 336 331 331 331 331
310 312 311 309 309 311 310 309 310 310 310 311 312 312 313 316 315 318 319 320 321 327 331 329 326 327 331 334 337 340 339 340 342 342 342 342 341 338 333 331 331 331 331 331
310 310 310 309 310 311 312 311 310 310 310 312 314 315 316 316 316 316 317 316 320 329 330 333 338 337 340 341 341 342 342 343 343 342 341 336 332 331 331 331 331 331 329 327
310 311 311 309 309 309 309 310 311 312 311 310 311 312 314 315 315 316 316 315 316 330 333 334 339 342 342 342 343 343 343 341 340 338 336 333 331 331 331 330 329 328 326 324
310 310 310 308 311 310 309 310 310 312 312 313 312 312 314 314 314 315 315 315 319 331 333 334 337 339 339 340 341 341 340 338 335 332 331 331 330 327 328 327 327 326 326 325
309 310 309 310 309 310 310 310 310 312 313 313 313 313 313 313 314 315 314 316 320 330 334 334 335 338 339 339 338 338 336 334 332 331 328 325 328 328 329 328 327 327 326 327
309 310 309 309 309 310 310 309 310 311 311 312 312 313 313 314 315 315 315 316 316 320 335 335 335 338 338 338 337 335 334 332 330 325 326 329 329 329 329 327 326 326 327 326
309 311 311 311 309 309 309 308 309 310 311 311 311 312 313 313 313 313 314 315 316 323 335 335 335 337 337 336 335 334 332 330 323 327 328 329 329 329 327 324 325 326 326 325
310 309 310 309 308 308 309 309 309 310 311 311 312 312 312 313 314 315 317 319 321 327 335 338 337 337 337 336 334 334 332 325 325 328 329 329 330 329 326 325 326 325 325 325
309 310 310 310 309 309 309 313 313 315 315 315 312 312 312 313 313 317 318 319 325 330 335 338 338 337 337 335 334 333 327 327 331 331 329 329 331 329 328 326 325 325 325 325
307 309 309 310 310 309 309 313 312 312 314 315 314 313 313 312 316 319 318 321 330 333 335 337 337 336 335 334 333 329 325 330 332 333 332 331 328 329 328 326 326 326 325 326
308 308 309 309 310 310 315 311 310 308 315 316 315 315 317 319 322 323 328 330 331 333 336 337 337 335 333 332 330 326 328 331 332 333 333 329 327 328 327 326 326 326 326 326
313 310 310 311 312 312 310 307 307 315 317 311 316 319 319 320 320 324 324 327 331 332 335 336 335 335 330 329 326 328 330 331 332 332 331 328 326 327 327 326 327 326 326 326
312 313 314 312 312 315 308 306 310 310 307 308 311 317 318 319 320 321 323 328 332 332 334 336 335 335 331 328 326 330 329 331 330 331 329 328 327 327 327 326 326 327 327 327
314 312 312 310 312 309 308 303 304 307 309 312 314 316 319 320 321 322 327 330 331 333 334 335 335 333 332 329 326 329 329 329 329 331 328 328 328 327 328 328 328 328 328 328
311 310 311 309 311 309 310 306 308 310 312 314 317 319 320 321 323 325 328 330 331 333 333 335 335 333 329 326 324 326 328 328 329 329 328 328 329 328 328 329 329 329 329 329
311 309 311 310 310 310 309 311 309 312 314 315 317 319 320 322 325 328 329 330 332 331 332 334 334 333 331 328 325 325 327 328 328 329 329 329 329 329 329 330 329 328 327 328
310 310 311 312 310 311 310 310 309 311 314 315 315 318 319 320 325 328 329 329 331 331 331 332 333 334 334 334 331 326 326 327 327 328 330 330 330 330 329 329 328 327 327 327
Wind_Speed
2 9 16 18 16 21 18 11 21 18 7 15 26 30 25 25 31 31 31 30 31 35 33 34 44 42 41 36 33 29 25 22 24 26 25 26 26 28 27 27 30 22 19 17
5 15 13 12 14 15 19 19 14 11 12 8 14 22 17 16 22 28 28 32 33 34 34 39 40 38 35 33 30 29 25 24 25 26 25 24 23 24 25 26 20 17 16 15
17 16 7 9 16 18 18 21 21 14 12 15 13 24 24 22 25 31 33 34 34 35 35 37 42 39 34 31 27 25 26 26 28 26 20 20 21 21 22 23 18 15 16 15
13 18 14 13 14 15 20 11 13 17 14 14 6 12 16 14 18 20 26 27 33 35 33 44 46 46 43 37 34 33 31 28 29 24 19 19 21 19 18 14 14 15 16 15
18 16 14 16 16 15 14 19 14 8 10 11 20 12 21 13 20 18 16 24 30 35 32 32 34 35 31 29 29 29 27 27 25 20 19 19 17 16 13 14 16 18 17 17
22 22 18 18 12 10 14 14 21 17 14 16 19 10 23 18 23 20 18 27 25 19 20 23 26 25 22 19 18 17 20 20 16 17 16 14 13 14 16 18 20 18 18 15
15 19 20 19 18 11 8 11 8 11 11 19 10 13 23 7 5 3 9 15 21 22 22 21 24 24 21 19 15 16 14 14 14 15 14 14 12 13 15 19 20 17 18 18
7 8 7 7 23 18 13 15 8 15 12 17 13 13 9 8 16 14 7 10 16 21 18 19 15 18 16 15 15 13 12 14 17 18 18 16 16 17 17 16 15 16 17 13
5 3 4 15 5 16 15 9 18 8 2 8 11 17 17 18 18 11 14 12 18 21 22 16 13 11 14 13 11 14 18 20 21 21 20 20 20 19 18 17 17 16 14 12
2 7 4 3 4 4 7 4 10 8 5 7 9 17 9 1 7 5 11 15 25 28 22 9 6 7 10 14 19 22 23 23 23 23 22 22 20 18 18 17 15 13 12 11
6 3 5 5 5 6 8 6 5 9 11 4 2 3 2 11 10 10 14 19 26 27 14 1 6 14 20 23 24 25 25 26 25 24 23 22 21 18 16 15 14 12 10 9
4 4 5 11 7 9 3 6 9 8 19 11 9 4 2 8 11 14 18 28 28 20 9 0 9 19 23 24 25 26 26 26 25 24 23 21 19 17 15 13 12 11 11 12
6 2 6 6 5 5 0 4 5 7 5 14 13 7 8 9 19 21 25 30 27 18 7 3 11 15 19 23 25 27 27 27 26 25 22 19 17 14 13 13 13 14 13 13
14 6 9 9 9 6 9 11 12 7 9 14 19 22 28 22 21 21 29 28 23 18 5 6 11 14 18 22 24 27 27 27 25 22 19 18 16 15 14 13 14 15 14 12
3 9 13 15 16 16 18 18 18 17 16 16 16 20 25 19 19 21 27 27 29 24 6 9 12 14 18 20 24 27 27 26 22 21 21 19 16 13 13 13 15 15 15 11
6 4 4 11 14 16 21 21 21 24 22 20 23 26 21 25 31 27 28 30 27 22 10 13 16 16 18 21 23 25 26 24 22 23 20 17 14 13 13 12 18 16 11 8
4 5 6 14 9 10 13 23 25 22 21 17 22 22 23 21 20 21 25 24 26 23 12 16 17 18 19 22 23 23 22 22 23 21 18 15 12 13 16 18 17 14 11 9
6 5 3 6 6 8 3 1 6 14 16 18 22 19 22 23 24 25 30 30 29 19 12 18 19 19 21 23 23 23 22 22 20 17 15 13 11 13 18 16 15 13 11 9
14 8 3 4 7 13 16 2 2 6 11 11 17 24 20 22 21 29 33 27 20 14 13 19 20 21 23 23 25 25 24 20 16 14 12 12 10 15 16 17 15 14 11 9
5 11 7 5 5 5 5 1 7 7 8 3 15 16 12 7 8 13 12 9 11 9 13 19 20 23 25 25 27 24 22 19 15 12 11 11 11 13 14 17 14 13 11 9
2 2 10 11 5 6 3 12 12 5 3 17 16 7 10 7 13 17 19 15 8 8 14 18 22 26 28 28 26 23 21 19 14 11 12 11 10 10 12 17 14 11 11 9
3 4 2 3 5 4 7 10 3 8 20 23 21 15 13 17 21 24 25 17 10 10 17 21 23 24 29 29 27 23 25 18 15 12 14 13 11 11 12 12 12 11 9 10
3 2 3 3 3 10 14 14 22 26 23 27 20 18 16 18 18 19 18 15 9 10 17 21 23 26 28 28 27 25 23 20 16 16 16 14 11 10 9 9 9 9 10 10
4 4 3 3 7 13 14 15 18 24 27 21 15 17 14 15 14 13 13 10 9 10 23 23 24 29 29 28 28 24 22 18 16 17 17 14 10 10 9 8 6 6 8 9
4 8 5 5 10 19 4 18 21 23 20 13 10 7 6 3 5 9 9 4 4 10 18 22 26 30 30 29 26 24 21 19 18 17 16 13 11 9 9 9 9 7 7 6
3 4 3 3 16 12 11 17 27 27 20 20 16 14 11 7 7 11 9 8 9 10 16 20 20 24 28 29 28 24 22 19 19 18 15 14 12 10 8 9 11 11 11 10
Wind_Direction
193 244 230 233 236 254 262 303 259 251 210 233 226 245 246 250 256 263 263 263 265 269 274 274 279 278 280 278 273 266 271 286 296 299 276 263 253 253 253 246 249 254 254 245
211 248 260 258 251 248 244 250 253 280 264 255 249 260 256 257 259 264 267 268 267 272 274 277 278 280 277 277 273 268 270 290 295 294 274 255 249 252 247 243 247 245 238 228
262 255 258 260 247 244 240 240 242 248 279 277 270 271 262 255 256 261 260 263 267 266 271 274 279 276 277 276 272 273 281 284 285 293 260 240 242 246 241 239 234 227 217 202
259 260 238 247 240 242 245 230 237 237 238 251 211 272 264 257 255 254 260 258 261 266 266 271 272 273 275 274 276 277 278 276 280 279 244 238 241 243 249 239 218 203 195 190
263 286 256 245 241 225 252 230 239 246 246 263 251 271 267 250 258 255 268 261 260 260 268 268 271 277 275 270 267 263 262 266 269 249 230 232 233 233 225 203 190 186 179 169
265 274 253 242 240 244 229 218 217 229 239 247 241 241 276 257 261 261 257 257 264 279 288 270 269 278 273 270 263 251 247 253 252 223 214 213 210 206 190 181 177 170 167 177
296 283 243 232 233 228 231 201 189 205 210 234 219 213 244 338 97 319 296 291 288 294 293 286 276 274 266 265 257 238 230 234 217 194 182 176 170 174 175 167 165 166 174 176
317 336 331 214 224 227 223 217 219 214 204 233 206 221 244 248 268 266 292 303 299 302 305 300 288 260 254 239 236 221 211 194 179 166 160 153 152 155 154 154 153 156 161 167
301 276 334 330 307 221 226 225 232 295 263 215 198 243 267 267 281 277 298 332 331 326 317 301 283 251 234 242 203 180 171 163 157 156 154 148 148 150 150 148 147 154 164 178
274 292 191 255 360 314 250 252 207 214 230 212 215 234 245 127 233 42 20 2 346 340 325 280 250 195 167 151 150 152 154 156 152 151 148 146 147 149 148 150 156 166 174 192
295 249 292 292 221 170 266 219 241 251 238 282 267 155 170 112 70 20 9 354 348 344 339 291 154 145 146 147 148 150 151 148 146 146 145 144 143 145 149 154 163 173 187 192
325 298 289 287 289 278 253 293 239 244 226 239 283 271 112 104 27 3 350 342 342 343 340 12 151 152 147 146 148 149 148 145 145 146 145 146 149 149 154 161 170 174 174 157
350 287 309 315 160 84 283 259 277 292 271 253 241 243 170 285 327 337 334 340 343 343 336 172 160 152 147 147 148 147 146 145 146 144 144 145 147 151 153 155 160 162 153 147
319 254 253 268 303 319 291 285 286 268 259 250 239 260 267 287 306 319 327 329 334 339 316 182 168 155 153 149 148 146 146 146 145 143 144 141 141 145 147 147 156 154 148 145
271 266 250 255 268 276 276 279 279 260 259 250 260 255 267 285 299 311 316 312 318 327 263 199 182 160 156 152 150 149 149 149 147 145 142 140 138 142 149 153 156 151 148 146
202 260 264 254 259 264 273 274 262 256 255 255 254 258 271 284 287 291 301 301 306 317 253 200 187 170 162 158 154 154 153 151 150 147 146 144 143 145 152 162 159 151 150 145
233 235 249 265 273 288 274 250 247 254 253 252 240 250 260 265 271 280 287 290 297 301 239 197 183 173 168 162 159 159 158 156 156 155 154 160 164 160 155 149 150 150 152 155
219 210 226 272 297 254 271 304 266 271 271 257 244 240 247 252 267 281 280 281 288 286 222 193 180 173 169 165 163 163 163 161 160 161 167 173 174 166 167 162 162 159 160 153
218 210 241 240 230 285 285 55 61 307 283 289 232 231 242 251 283 283 275 270 265 269 215 192 177 170 167 168 169 166 166 165 166 166 174 178 166 163 167 166 164 165 166 167
220 226 223 213 249 268 22 161 331 322 266 237 223 225 229 238 259 265 313 274 261 239 197 181 171 168 169 170 172 170 172 175 175 176 175 169 161 166 169 171 168 170 165 178
333 211 229 235 259 271 40 326 310 222 28 326 303 271 257 236 239 278 302 304 269 220 189 176 172 169 169 170 172 171 176 180 178 171 162 150 144 155 170 177 175 174 180 187
293 307 263 214 236 256 354 323 265 317 301 296 291 285 271 262 268 274 275 282 254 199 185 177 171 168 171 171 172 172 180 178 181 164 153 146 149 154 159 166 176 183 191 194
293 230 288 250 289 272 305 236 282 289 283 294 290 288 273 265 268 269 254 246 238 199 184 176 171 167 172 175 176 176 180 187 179 167 157 154 165 169 174 178 182 190 198 205
286 327 265 296 244 274 303 299 292 304 291 281 273 264 261 257 255 243 230 235 230 211 185 175 170 169 173 175 177 174 182 183 173 161 162 171 176 185 185 184 189 185 198 205
287 304 276 249 279 310 193 343 335 341 357 20 24 23 6 273 227 196 181 155 139 163 173 175 173 177 178 177 176 179 180 185 180 173 179 181 184 188 188 180 161 144 136 151
303 314 310 292 309 321 324 353 2 352 357 27 29 34 41 39 139 145 124 96 110 135 172 175 177 183 187 186 182 174 178 185 187 183 186 192 191 194 189 173 155 134 131 128